Wind_Speed
15 16 17 18 20 21 22 22 22 23 23 24 24 24 23 22 22 22 23 23 23 24 25 25 24 23 23 22 22 22 23 23 24 24 23 23 23 23 24 24 24 25 26
8 10 11 12 13 14 15 15 16 17 18 19 18 18 18 18 18 18 17 18 19 20 21 21 21 21 21 21 21 22 23 23 24 24 24 24 23 23 23 23 24 25 25
5 5 6 6 7 7 8 9 9 10 10 11 13 14 15 16 16 16 16 17 17 18 19 20 20 20 21 20 21 21 22 23 23 23 23 23 23 23 24 24 24 24 24
6 6 5 4 3 4 5 5 6 7 7 9 11 12 13 14 14 14 14 15 16 17 18 18 18 19 19 20 20 21 21 21 22 22 22 22 23 23 24 24 24 24 25
8 8 8 7 6 5 4 3 4 5 6 8 9 10 11 11 12 13 14 15 16 16 17 18 18 19 19 19 20 21 21 21 21 22 22 22 23 23 24 24 24 24 24
9 8 8 7 6 5 5 5 5 6 7 8 9 10 12 13 14 15 15 16 17 17 18 19 19 19 19 20 20 21 21 21 21 21 22 22 23 23 23 24 24 24 24
12 11 10 9 7 7 7 7 6 6 7 9 10 11 12 13 15 16 17 17 17 17 18 19 20 20 20 20 21 21 21 22 22 22 22 22 22 23 23 23 23 23 23
15 14 13 12 11 9 8 8 8 8 8 9 10 11 12 14 15 16 17 17 17 18 18 19 19 19 19 20 20 20 20 20 21 21 21 21 21 21 21 21 21 21 21
16 16 15 14 13 12 10 10 9 9 10 10 11 11 12 13 14 15 16 16 17 17 18 18 18 18 18 18 19 19 19 19 19 19 19 19 19 19 19 19 19 19 19
18 17 16 16 15 14 13 12 11 11 11 11 11 12 12 12 12 13 14 15 15 16 16 17 18 18 17 17 17 17 17 17 18 18 18 18 18 17 17 17 17 17 18
19 18 18 17 16 16 15 14 13 12 12 12 12 12 12 11 10 10 10 11 12 12 13 14 15 16 16 16 16 16 16 16 16 16 16 16 16 16 16 16 16 15 16
20 19 18 18 18 17 17 16 15 14 14 13 13 12 11 9 8 7 7 7 8 9 10 11 12 13 14 14 14 14 14 15 15 15 15 15 15 15 14 14 14 14 15
20 19 19 19 19 19 18 18 17 16 16 15 14 13 12 10 8 6 4 4 5 5 6 7 7 8 9 10 11 11 11 12 12 13 13 13 13 13 13 13 13 13 13
20 20 20 19 19 19 19 19 18 18 17 17 16 15 14 13 10 8 5 3 2 2 2 3 3 4 5 6 7 8 8 9 10 10 10 10 10 9 9 9 9 9 10
20 20 20 21 20 20 19 19 19 18 18 18 18 17 16 15 14 12 10 8 6 4 3 2 1 1 1 2 3 4 5 5 6 7 7 7 7 7 7 7 7 8 8
19 20 20 20 21 21 20 20 19 19 18 18 18 18 18 17 16 15 14 12 10 9 8 7 6 4 3 2 2 1 1 2 3 3 4 4 5 5 5 5 5 5 6
18 19 19 20 20 20 20 20 20 19 19 19 19 19 19 19 18 18 17 15 14 13 11 10 9 8 7 6 6 5 4 4 3 2 1 1 0 0 1 2 2 3 5
17 17 18 19 19 19 20 20 20 19 19 19 19 19 18 19 19 19 18 17 16 15 14 13 12 12 11 10 10 9 9 8 8 7 6 5 5 4 3 3 3 3 4
15 16 16 17 18 19 19 19 19 19 19 19 19 18 18 18 18 19 19 18 18 17 17 16 15 15 14 13 13 12 12 12 11 11 10 9 8 7 6 5 5 5 5
13 14 15 16 17 17 18 18 18 18 18 18 18 18 18 18 18 18 18 17 17 17 16 16 16 15 15 15 14 14 13 13 13 12 12 11 11 10 9 8 8 8 7
11 12 13 14 15 15 16 17 17 17 17 17 17 17 17 17 17 17 17 17 16 16 16 16 15 15 15 15 15 14 14 13 13 13 13 12 12 11 11 10 10 10 9
10 10 11 12 13 13 14 14 15 15 15 16 16 16 16 16 16 16 16 16 16 16 16 15 15 15 15 15 15 15 14 14 14 13 13 13 13 12 12 11 11 10 10
9 9 10 10 11 11 12 13 13 14 14 14 14 14 15 15 15 15 15 15 15 15 15 15 15 15 14 14 14 14 14 14 14 13 13 13 12 12 12 12 11 11 11
9 9 9 9 9 9 10 11 12 12 12 12 12 12 13 13 13 13 13 14 14 14 14 14 14 14 14 14 14 14 14 14 14 13 13 13 12 12 12 12 12 12 12
10 9 9 9 9 8 9 9 10 10 11 11 11 11 10 10 11 11 11 11 11 12 12 12 13 13 13 13 13 14 13 13 13 13 13 13 12 12 12 12 12 12 12
11 10 10 10 9 9 9 8 8 9 9 9 9 9 9 9 9 9 9 9 9 9 9 10 10 10 11 11 12 12 12 12 12 12 12 12 12 12 12 12 12 12 12
Wind_Direction
271 268 266 265 263 263 264 265 264 262 262 263 263 262 260 259 258 258 256 252 251 248 247 246 244 245 246 247 247 250 252 254 256 259 261 263 264 266 268 270 272 272 272
284 277 276 274 265 263 263 265 266 262 259 257 256 257 255 254 253 252 247 248 247 247 247 245 244 246 248 248 250 252 253 255 257 259 262 263 264 266 268 269 271 272 272
312 300 293 287 270 263 267 268 268 264 260 257 256 252 249 248 249 247 246 247 246 248 249 248 249 248 248 250 252 254 255 256 258 260 262 263 264 266 268 268 270 271 269
25 22 10 352 322 292 282 275 268 268 263 254 250 249 250 252 250 248 249 250 251 253 252 252 252 250 250 252 254 255 256 257 259 261 263 265 266 267 268 266 268 269 268
38 32 25 21 18 9 348 313 293 279 271 266 261 261 260 258 259 257 257 257 257 256 255 254 253 253 253 254 256 258 259 260 262 263 265 266 267 268 267 266 267 268 267
33 25 19 15 8 2 350 337 317 300 289 282 278 275 270 266 266 264 263 260 260 258 256 255 256 256 255 256 258 260 262 263 264 264 266 267 267 268 268 267 268 268 266
34 30 25 20 13 4 354 348 337 322 308 298 292 285 278 273 270 268 265 263 261 259 256 256 256 256 256 258 261 263 264 264 264 265 266 266 267 268 269 269 269 268 267
38 35 31 25 20 13 5 356 346 335 324 315 306 298 290 281 275 271 267 265 262 261 259 258 257 257 257 260 260 262 264 265 265 266 267 267 268 269 269 269 269 269 268
39 36 33 30 26 22 14 4 354 346 336 326 317 309 300 290 281 274 269 265 263 262 260 258 256 257 257 258 260 262 263 264 266 267 267 268 269 269 269 269 269 270 269
39 36 34 31 28 24 18 11 4 357 349 339 330 322 312 301 291 282 275 270 266 263 260 258 256 256 256 258 261 265 266 265 266 268 267 267 267 267 267 269 270 271 270
38 36 34 32 29 25 22 18 13 8 2 354 344 337 328 316 303 293 282 272 265 261 259 259 258 256 256 258 261 265 266 266 265 266 266 266 265 265 266 269 271 272 273
37 36 34 33 30 28 25 22 19 15 12 8 2 357 352 342 327 309 294 280 270 264 262 261 259 256 255 258 260 262 263 264 264 263 265 266 266 267 269 270 272 274 276
36 35 33 33 31 30 28 26 25 22 20 18 17 15 12 9 3 350 327 299 282 272 266 263 259 255 255 257 259 261 263 264 266 264 265 267 265 267 270 270 273 274 275
35 33 32 32 31 30 29 29 29 29 28 27 27 27 27 27 26 24 20 10 342 312 290 274 266 261 263 265 264 263 264 266 267 267 267 268 266 269 269 268 271 278 281
33 33 32 32 32 31 30 31 32 32 32 32 33 33 34 35 38 40 42 44 45 48 49 46 28 335 292 277 270 267 269 269 269 269 266 264 265 268 270 273 278 286 289
31 32 31 31 31 32 33 33 33 33 33 34 37 39 40 42 44 46 49 52 54 58 61 63 65 66 62 50 31 356 328 312 297 285 276 271 268 269 272 274 280 290 298
29 30 30 30 31 32 33 34 35 35 36 38 40 42 45 46 49 50 52 55 58 60 62 62 61 60 60 57 55 53 49 43 40 36 26 29 20 256 268 294 306 312 317
26 28 29 30 29 30 32 34 35 37 38 39 41 44 46 48 49 51 53 56 59 61 62 63 63 63 63 62 62 62 63 62 63 66 68 71 74 71 60 41 20 3 352
23 24 25 26 27 28 30 32 33 36 38 40 42 44 46 48 50 51 54 56 58 60 61 62 63 63 64 64 65 66 66 66 67 69 69 68 67 63 58 51 41 32 26
17 19 20 21 23 25 27 29 31 33 36 39 41 43 46 48 50 51 53 55 56 57 59 60 61 61 62 63 64 64 64 66 66 66 65 65 64 61 59 55 50 45 38
7 11 14 16 19 21 23 26 29 31 34 37 40 42 45 47 49 51 53 54 55 56 57 58 58 58 59 59 60 61 62 62 62 61 60 60 60 59 58 55 51 47 43
355 360 5 10 14 16 18 21 25 29 32 35 38 40 42 44 47 50 52 54 55 56 57 58 58 58 59 59 60 60 60 59 59 58 58 58 57 56 54 51 48 45 42
343 347 352 359 5 10 13 16 19 23 27 30 34 37 39 42 45 48 50 53 55 56 57 57 57 57 57 57 56 55 55 54 55 55 55 54 52 50 49 47 44 41 37
325 330 335 341 347 354 2 8 12 16 19 23 26 29 33 36 40 44 46 48 50 52 53 54 54 54 54 55 54 54 54 53 52 51 50 49 48 46 44 41 38 35 32
309 312 317 322 327 332 339 348 357 4 8 12 16 20 24 28 32 36 39 41 44 47 49 49 49 50 50 49 48 49 48 48 47 46 44 42 41 39 37 34 32 29 26
298 299 301 304 308 312 316 322 330 339 347 354 359 4 9 14 20 25 29 32 35 39 42 42 43 43 42 41 41 42 41 41 41 39 37 35 33 32 30 28 25 22 19
Height
5786 5786 5787 5787 5788 5788 5789 5789 5790 5791 5791 5792 5793 5793 5794 5795 5795 5796 5797 5799 5800 5802 5803 5805 5807 5809 5811 5813 5814 5816 5818 5820 5820 5821 5821 5822 5822 5822 5822 5822 5821 5821 5820
5784 5784 5784 5784 5784 5784 5784 5784 5785 5785 5786 5786 5787 5788 5788 5789 5790 5791 5792 5793 5795 5796 5798 5799 5801 5803 5805 5807 5808 5810 5812 5813 5814 5814 5815 5815 5816 5816 5816 5816 5815 5814 5814
5783 5782 5782 5782 5781 5781 5781 5781 5782 5782 5782 5782 5783 5784 5784 5785 5786 5786 5788 5789 5790 5791 5793 5794 5796 5797 5799 5801 5802 5804 5805 5806 5807 5808 5808 5809 5809 5809 5809 5809 5809 5808 5808
5784 5783 5782 5781 5781 5780 5780 5780 5780 5780 5780 5780 5780 5780 5781 5781 5782 5783 5784 5785 5786 5787 5788 5789 5790 5792 5793 5795 5796 5798 5799 5800 5800 5801 5801 5802 5802 5802 5802 5802 5802 5802 5802
5785 5784 5783 5782 5781 5780 5779 5779 5779 5778 5778 5778 5778 5778 5778 5778 5778 5779 5780 5780 5781 5782 5783 5784 5785 5786 5788 5789 5790 5791 5792 5793 5794 5794 5795 5795 5795 5796 5796 5796 5796 5795 5795
5787 5786 5784 5783 5782 5781 5780 5779 5778 5777 5777 5776 5776 5775 5775 5775 5775 5775 5775 5776 5777 5778 5779 5779 5780 5781 5782 5783 5785 5786 5786 5787 5788 5788 5788 5789 5789 5789 5789 5789 5789 5789 5789
5789 5787 5785 5784 5782 5780 5779 5778 5777 5776 5775 5774 5773 5772 5772 5771 5771 5771 5771 5772 5772 5773 5773 5774 5774 5776 5777 5778 5779 5780 5780 5781 5782 5782 5782 5783 5783 5783 5783 5783 5783 5783 5782
5791 5789 5787 5785 5783 5781 5779 5778 5776 5775 5773 5772 5771 5769 5768 5767 5767 5766 5766 5767 5767 5768 5768 5769 5770 5770 5771 5772 5773 5774 5775 5775 5776 5776 5777 5777 5777 5777 5777 5777 5777 5777 5776
5793 5791 5789 5786 5784 5782 5780 5778 5776 5774 5772 5770 5768 5766 5765 5763 5762 5761 5761 5762 5762 5763 5763 5764 5764 5765 5766 5767 5768 5769 5770 5770 5770 5771 5771 5771 5771 5772 5772 5772 5772 5772 5771
5796 5793 5791 5788 5785 5783 5781 5778 5776 5774 5771 5769 5766 5764 5762 5760 5758 5757 5757 5757 5757 5758 5758 5759 5760 5761 5762 5762 5763 5764 5764 5765 5766 5766 5766 5766 5767 5767 5767 5767 5767 5767 5766
5799 5796 5793 5790 5787 5784 5781 5779 5776 5773 5771 5768 5765 5762 5759 5757 5755 5754 5753 5753 5753 5754 5754 5755 5755 5756 5757 5758 5758 5759 5759 5760 5761 5761 5761 5762 5762 5762 5762 5762 5762 5762 5762
5802 5799 5795 5792 5789 5786 5783 5780 5777 5773 5770 5767 5764 5761 5758 5755 5753 5751 5750 5750 5750 5750 5751 5751 5751 5752 5753 5754 5754 5755 5755 5756 5756 5757 5757 5757 5758 5758 5758 5758 5758 5758 5758
5805 5802 5798 5795 5792 5788 5785 5781 5778 5775 5771 5768 5765 5761 5758 5755 5752 5750 5749 5749 5748 5748 5748 5748 5749 5749 5749 5750 5751 5751 5752 5752 5753 5753 5753 5754 5754 5754 5754 5754 5754 5754 5754
5808 5805 5801 5798 5794 5791 5787 5784 5780 5777 5773 5770 5766 5763 5759 5756 5753 5751 5749 5748 5748 5748 5747 5747 5747 5747 5748 5748 5748 5749 5749 5749 5749 5750 5750 5750 5751 5751 5751 5751 5751 5751 5751
5811 5808 5804 5801 5797 5794 5790 5786 5783 5779 5776 5772 5769 5765 5762 5758 5755 5753 5751 5749 5749 5748 5748 5748 5747 5747 5747 5747 5747 5747 5747 5747 5747 5747 5747 5747 5748 5748 5748 5748 5749 5748 5748
5814 5811 5808 5804 5800 5797 5793 5789 5786 5782 5779 5775 5772 5768 5765 5762 5759 5756 5754 5752 5751 5750 5749 5749 5748 5748 5747 5747 5746 5746 5746 5746 5745 5745 5745 5745 5746 5746 5746 5746 5746 5746 5746
5817 5814 5811 5807 5804 5800 5796 5793 5789 5786 5782 5779 5776 5772 5769 5766 5763 5760 5758 5756 5754 5753 5752 5751 5750 5749 5749 5748 5747 5746 5746 5745 5744 5744 5744 5744 5744 5744 5744 5745 5745 5744 5744
5820 5817 5814 5810 5807 5803 5800 5796 5793 5789 5786 5783 5780 5776 5773 5771 5768 5765 5762 5760 5759 5757 5756 5754 5753 5752 5751 5750 5749 5748 5747 5746 5745 5745 5744 5744 5744 5744 5744 5744 5743 5743 5743
5822 5819 5816 5813 5810 5806 5803 5800 5796 5793 5790 5787 5783 5780 5778 5775 5772 5770 5767 5765 5763 5762 5760 5759 5757 5756 5755 5753 5752 5751 5750 5749 5748 5747 5746 5746 5745 5745 5744 5744 5743 5743 5742
5824 5821 5818 5815 5812 5809 5806 5803 5799 5796 5793 5790 5787 5785 5782 5779 5777 5774 5772 5770 5768 5766 5765 5763 5762 5760 5759 5757 5756 5755 5754 5752 5752 5750 5749 5748 5747 5746 5745 5745 5744 5743 5742
5825 5822 5820 5817 5814 5812 5809 5806 5802 5799 5797 5794 5791 5788 5786 5783 5781 5778 5776 5774 5772 5771 5769 5767 5766 5764 5763 5761 5760 5758 5757 5756 5755 5754 5752 5751 5750 5749 5748 5747 5745 5744 5743
5825 5823 5821 5819 5816 5813 5811 5808 5805 5802 5800 5797 5794 5792 5789 5787 5784 5782 5780 5778 5776 5774 5773 5771 5769 5768 5766 5765 5763 5762 5761 5759 5758 5757 5755 5754 5753 5751 5750 5749 5747 5746 5745
5825 5823 5821 5819 5817 5815 5812 5810 5807 5805 5802 5800 5797 5795 5793 5790 5788 5786 5784 5782 5780 5778 5776 5774 5773 5771 5770 5768 5767 5765 5764 5762 5761 5760 5758 5757 5755 5754 5752 5751 5749 5748 5746
5824 5823 5821 5819 5817 5815 5813 5811 5809 5806 5804 5802 5799 5797 5795 5793 5791 5789 5787 5785 5783 5781 5779 5778 5776 5775 5773 5771 5770 5768 5767 5765 5764 5762 5761 5759 5758 5756 5755 5753 5751 5749 5747
5823 5821 5820 5818 5817 5815 5813 5811 5810 5807 5805 5803 5801 5799 5797 5795 5793 5791 5790 5788 5786 5784 5783 5781 5779 5778 5776 5775 5773 5771 5770 5768 5766 5765 5763 5762 5760 5758 5757 5755 5753 5751 5748
5820 5819 5818 5816 5815 5814 5812 5811 5809 5808 5806 5804 5802 5800 5798 5797 5795 5793 5791 5790 5788 5787 5785 5783 5782 5780 5779 5777 5775 5774 5772 5770 5769 5767 5765 5764 5762 5760 5758 5756 5754 5752 5749